Home   Weather   Narowal   Past weeks

Flag for Pakistan Past Weather in Narowal, Pakistan — Yesterday and Last 2 Weeks

63 °F


Feels Like: 63 °F
Forecast: 61 / 88 °F
Wind: No wind

Location: Amritsar Airport

Current Time: Oct 29, 2016 at 4:55:40 AM

Latest Report: Oct 29, 2016 at 4:30 AM

Visibility: 1 mi

Pressure: 29.89 "Hg

Humidity: 100%

Dew Point: 63 °F

Location of NarowalLocation

Past Weather in Narowal — Graph


Narowal Temperature Yesterday

Maximum temperature yesterday: 86 °F (at 12:00 PM)
Minimum temperature yesterday: 59 °F (at 4:00 AM)
Average temperature yesterday: 71 °F

High & Low Weather Summary for the Past Weeks

High91 °F (Oct 15, 1:00 PM)100% (Oct 14, 3:00 AM)30.07 "Hg (Oct 14, 3:00 AM)
Low59 °F (Oct 28, 4:00 AM)23% (Oct 18, 3:00 PM)29.71 "Hg (Oct 20, 2:00 PM)
Average75 °F73%29.85 "Hg
* Reported Oct 14 3:00 AM — Oct 29 3:30 AM, Narowal, Weather by CustomWeather, © 2016

Note: Actual official high and low records may vary slightly from our data, if they occured in-between our weather recording intervals... More about our weather records


Narowal Weather History for the Previous 24 Hours

Scroll right to see more
Time TempWeatherWind HumidityBarometerVisibility
3:30 AM
Sat, Oct 29
63 °FFog.No wind100%29.89 "Hg1 mi
3:00 AM64 °FFog.No wind100%29.89 "Hg1 mi
2:30 AM64 °FFog.1 mph100%29.89 "Hg1 mi
2:00 AM64 °FFog.No wind100%29.89 "Hg1 mi
1:30 AM64 °FFog.No wind100%29.89 "Hg1 mi
1:00 AM64 °FFog.No wind100%29.89 "Hg1 mi
12:30 AM64 °FFog.No wind100%29.89 "Hg1 mi
12:00 AM64 °FFog.No wind100%29.89 "Hg1 mi
11:30 PM
Fri, Oct 28
66 °FFog.No wind88%29.89 "Hg1 mi
11:00 PM66 °FFog.No wind94%29.89 "Hg1 mi
10:30 PM66 °FFog.No wind100%29.89 "Hg1 mi
10:00 PM68 °FFog.No wind78%29.89 "Hg1 mi
9:30 PM68 °FFog.No wind83%29.89 "Hg1 mi
9:00 PM68 °FFog.No wind88%29.89 "Hg1 mi
8:00 PM72 °FHaze.No wind65%29.89 "Hg1 mi
7:30 PM72 °FHaze.No wind73%29.89 "Hg1 mi
7:00 PM72 °FHaze.No wind69%29.89 "Hg1 mi
6:30 PM73 °FHaze.No wind61%29.86 "Hg1 mi
6:00 PM73 °FHaze.No wind65%29.86 "Hg1 mi
5:30 PM77 °FHaze.No wind54%29.86 "Hg1 mi
5:00 PM81 °FHaze.No wind45%29.86 "Hg1 mi
4:30 PM81 °FHaze.No wind45%29.86 "Hg1 mi
4:00 PM84 °FHaze.2 mph37%29.86 "Hg1 mi
3:30 PM84 °FHaze.5 mph40%29.86 "Hg1 mi
3:00 PM86 °FHaze.7 mph35%29.86 "Hg1 mi
2:30 PM86 °FHaze.9 mph35%29.86 "Hg2 mi
2:00 PM86 °FHaze.8 mph35%29.86 "Hg2 mi
1:30 PM86 °FHaze.8 mph35%29.86 "Hg2 mi
1:00 PM86 °FHaze.10 mph33%29.89 "Hg2 mi
12:30 PM86 °FHaze.9 mph33%29.89 "Hg2 mi
12:00 PM86 °FHaze.8 mph35%29.92 "Hg2 mi
11:30 AM84 °FHaze.8 mph37%29.95 "Hg2 mi
10:30 AM79 °FHaze.No wind48%29.95 "Hg1 mi
10:00 AM77 °FHaze.No wind61%29.98 "Hg1 mi
9:30 AM73 °FHaze.No wind69%29.98 "Hg1 mi
9:00 AM72 °FFog.No wind73%29.98 "Hg1 mi
8:30 AM68 °FFog.No wind83%29.95 "Hg1 mi
8:00 AM66 °FFog.No wind100%29.95 "Hg1 mi
7:30 AM61 °FFog.No wind100%29.95 "Hg1 mi
7:00 AM59 °FFog.No wind100%29.92 "Hg1 mi
6:30 AM59 °FFog.2 mph100%29.92 "Hg1 mi
6:00 AM59 °FFog.No wind100%29.92 "Hg1 mi
5:30 AM59 °FFog.No wind100%29.92 "Hg1 mi
5:00 AM59 °FFog.No wind100%29.92 "Hg1 mi
4:30 AM59 °FFog.No wind100%29.92 "Hg1 mi
4:00 AM59 °FFog.No wind100%29.92 "Hg1 mi
Weather by CustomWeather, © 2016

See weather overviewHow to use our weather pages